Location: Erdweis
(48.5167°N, 15.3500°E)
Time: 13:51:38
(UTC+00:00)

USA 234 - Pass Details

Date: 18 January 2021
Orbit: 1100 x 1107 km, 123.0° (Epoch: 01 March)

Event Time Altitude Azimuth Distance (km) Brightness Sun altitude
Exits shadow 18:21:55 61° 73° (ENE) 1,237 3.2 -27.0°
Maximum altitude 18:22:52 69° 27° (NNE) 1,172 3.2 -27.2°
Drops below altitude 10° 18:29:22 10° 306° (NW) 2,968 6.2 -28.3°
Sets 18:31:52 0° 304° (WNW) 3,929 7.0 -28.7°
